Flag for Qatar Weather past 2 weeks in Al-Jamiliyah, Qatar

Now
96 °F

Sunny.


Feels Like: 121 °F
Forecast: 89 / 106 °F
Wind: 5 mph from East

Location: Al Udeid

Current Time: Jul 31, 2015 at 9:38:26 PM

Latest Report: Jul 31, 2015 at 8:58 PM


Visibility: N/A

Pressure: 29.47 "Hg

Humidity: 66%

Dew point: 82 °F

Historic Weather in Al-Jamiliyah — Graph

°F

Al-Jamiliyah temperature yesterday

Maximum temperature yesterday: 116 °F (at 1:58 PM)
Minimum temperature yesterday: 92 °F (at 3:58 AM)
Average temperature yesterday: 102 °F

Past Weeks' High & Low Weather Summary

 TemperatureHumidityPressure
High120 °F (Jul 17, 12:58 PM)87% (Jul 26, 4:58 AM)29.55 "Hg (Jul 26, 4:58 AM)
Low83 °F (Jul 19, 4:58 AM)5% (Jul 19, 12:58 PM)29.32 "Hg (Jul 17, 1:58 PM)
Average100 °F36%29.44 "Hg
* Reported Jul 16 8:58 PM — Jul 31 7:58 PM, Al-Jamiliyah, Weather by CustomWeather, © 2015

Note: Actual official high and low records may vary slightly from our data, if they occured in-between our weather recording intervals... More about our weather records

Advertising

Al-Jamiliyah weather history for previous 24 hours

 ConditionsComfort  
Time TempWeatherWind HumidityBarometerVisibility
7:58 PM
Fri, Jul 31
98 °FSunny.8 mph57%29.46 "HgN/A
6:58 PM102 °FSunny.10 mph46%29.44 "HgN/A
5:58 PM106 °FSunny.9 mph29%29.43 "HgN/A
4:58 PM110 °FSunny.15 mph24%29.43 "HgN/A
3:58 PM110 °FSunny.14 mph29%29.43 "HgN/A
2:59 PM115 °FSunny.10 mph13%29.43 "HgN/A
1:58 PM114 °FSunny.8 mph13%29.45 "HgN/A
12:58 PM114 °FClear.13 mph15%29.46 "HgN/A
11:58 AM112 °FPassing clouds.13 mph16%29.48 "HgN/A
10:58 AM109 °FClear.9 mph20%29.50 "HgN/A
9:58 AM107 °FClear.14 mph27%29.51 "HgN/A
8:58 AM104 °FClear.10 mph35%29.50 "HgN/A
7:58 AM99 °FClear.6 mph53%29.50 "HgN/A
6:58 AM95 °FClear.6 mph69%29.50 "HgN/A
5:58 AM91 °FClear.7 mph71%29.49 "HgN/A
4:58 AM92 °FClear.8 mph61%29.48 "HgN/A
3:58 AM92 °FClear.10 mph57%29.46 "HgN/A
2:58 AM91 °FClear.2 mph62%29.44 "HgN/A
1:58 AM91 °FSunny.6 mph60%29.44 "HgN/A
12:59 AM92 °FSunny.8 mph49%29.43 "HgN/A
11:58 PM
Thu, Jul 30
96 °FSunny.3 mph40%29.44 "HgN/A
10:58 PM96 °FSunny.5 mph41%29.44 "HgN/A
9:58 PM98 °FSunny.7 mph40%29.45 "HgN/A
Weather by CustomWeather, © 2015

See weather overviewHow to use our weather pages